sat.trackr.live / text

‹ back to catalog

STARLINK-34487

NORAD 64417 · 2025-129F

PAYLOAD ACTIVE UNKNOWN

§ Identity

Operator
Country
US
Launch date
2025-06-17
Launch site
AFWTR
Launch vehicle
Mass (kg)
RCS (m²)

Purposes: comms

External: N2YO · Heavens-Above · Gunter

§ Orbital elements

Epoch: 2026-05-25T05:14:23.398368Z

Period
96.11 min
Inclination
70.0005°
Eccentricity
0.0003282
Mean motion
14.98338297 rev/d
Perigee alt
569.7 km
Apogee alt
574.3 km
Semi-major
6,950.2 km
B*
4.4881e-4
RAAN
241.3744°
Arg perigee
270.4712°
Mean anomaly
89.6071°
Rev number
5,269

§ Raw data

STARLINK-344871 64417U 25129F   26145.21832637  .00005267  00000+0  44881-3 0  99982 64417  70.0005 241.3744 0003282 270.4712  89.6071 14.98338297 52696

JSON: /api/v1/satellites/64417 · /tle

For live sub-satellite position, see the globe view (requires WebGL).

§ Visibility from observer

Set your observer location to see the next 7 days of passes ≥ 10°. The values pass through the URL so the page stays shareable.

No JS? Fill the form by hand. The geolocation button needs JavaScript.